Wind_Speed
3 3 9 12 8 5 1 3 6 6 9 6 8 10 13 10 6 9 9 7 8 8 6 7 6 7 8 4 4 6 9 13 16 15 18 16 20 19 18 18 22 27 30 27
1 11 11 7 6 8 8 8 9 9 6 5 7 11 11 9 9 10 14 11 11 7 5 4 6 5 5 7 8 7 6 12 14 13 15 19 20 21 18 17 17 17 19 28
11 7 5 11 9 8 9 9 6 8 4 4 4 10 8 4 2 2 4 13 9 10 9 5 5 9 11 10 10 10 5 10 13 15 15 17 19 19 19 18 17 19 20 21
9 17 16 7 8 10 13 8 10 5 2 3 3 6 7 7 5 4 8 9 9 9 6 6 6 7 7 9 9 7 5 8 8 11 14 19 23 20 23 23 20 18 20 20
9 6 9 14 20 8 9 8 6 4 2 2 3 2 6 1 5 7 7 7 8 8 8 7 6 6 6 5 7 6 2 3 3 9 14 19 23 21 13 12 12 12 15 17
14 6 4 7 7 13 4 4 6 5 2 4 8 8 6 4 7 6 5 7 9 8 8 7 10 9 5 4 5 6 7 5 4 9 11 13 12 8 7 7 7 10 12 16
10 16 8 5 5 2 4 6 2 3 2 6 3 3 10 6 7 16 18 13 10 8 8 7 7 7 4 5 5 4 6 8 8 8 7 6 5 3 4 7 9 12 14 15
12 6 16 9 18 7 7 9 6 6 4 5 1 6 6 4 5 7 12 14 11 8 7 7 6 8 5 3 4 4 5 8 8 9 9 7 5 3 3 6 10 15 16 19
7 7 5 5 10 13 6 5 7 4 1 1 5 7 8 5 6 13 15 14 12 9 8 8 8 10 6 4 3 2 4 5 7 10 9 9 5 3 3 5 9 14 17 19
6 11 10 6 5 4 11 8 3 2 3 5 5 5 8 5 6 9 14 14 12 9 8 7 7 10 8 6 5 4 5 6 5 6 5 5 4 5 2 3 4 14 18 21
2 12 9 4 8 10 3 5 3 5 6 5 2 6 6 12 13 17 13 13 14 12 9 9 8 11 11 8 7 7 6 7 7 6 7 8 9 7 5 5 9 18 22 24
5 4 10 21 4 6 17 15 8 5 5 5 3 6 3 8 14 13 14 12 12 12 10 8 9 12 11 10 9 9 9 9 8 8 9 9 8 8 10 9 12 17 22 21
7 3 3 1 4 4 4 4 7 5 3 7 5 5 4 5 9 11 14 13 13 12 11 10 8 10 10 11 11 11 10 12 12 12 12 12 12 12 12 13 14 14 15 18
6 2 3 4 4 10 5 9 11 11 10 7 9 5 3 2 7 8 12 13 13 13 14 11 9 9 12 12 14 13 13 13 13 14 15 17 15 15 15 16 16 16 14 15
5 8 8 9 13 15 18 20 18 15 17 14 17 15 14 8 10 14 12 13 15 14 14 13 12 10 13 13 16 16 16 15 16 18 20 20 18 17 18 18 17 17 17 16
4 3 7 17 13 15 19 19 20 23 20 21 14 8 5 10 4 9 15 18 17 18 16 15 14 12 15 16 17 19 18 20 19 21 21 21 19 18 18 19 19 20 21 21
4 4 3 16 6 12 9 20 17 11 10 10 14 14 10 4 9 15 16 20 21 19 18 18 16 16 19 19 20 20 21 22 21 21 20 21 20 19 19 20 20 20 21 20
6 3 2 3 1 10 9 16 12 12 11 10 8 8 10 14 16 14 17 22 19 19 19 17 16 22 22 23 21 21 22 22 23 22 21 20 20 20 19 19 20 20 19 20
9 5 2 2 7 13 14 8 6 5 18 12 13 16 17 8 3 5 16 19 23 24 19 22 28 28 25 25 24 23 21 22 21 20 20 22 23 23 22 23 23 22 23 23
8 6 5 2 5 8 3 3 5 5 13 7 8 11 12 7 6 8 13 15 15 17 25 27 30 27 28 27 28 25 22 21 19 21 23 25 25 24 24 24 23 22 23 23
5 5 12 10 7 8 6 4 8 3 2 2 4 9 10 11 12 9 15 16 19 22 28 30 32 30 31 30 30 25 24 22 24 25 25 25 25 25 25 24 24 24 23 22
6 5 5 7 10 18 7 2 6 4 8 10 8 6 11 8 8 6 15 19 21 22 26 32 31 30 31 33 31 26 25 25 28 29 28 28 27 27 27 26 25 23 22 22
4 7 4 6 4 5 13 14 16 16 16 11 12 15 8 12 8 9 12 18 21 24 29 34 32 31 31 33 33 29 28 32 32 32 30 30 30 30 29 28 26 24 22 21
5 5 6 4 10 16 22 23 20 13 15 17 14 11 18 18 10 8 11 16 17 19 25 33 31 29 30 34 32 32 36 37 36 34 33 32 32 32 31 29 29 27 26 23
5 1 5 6 11 9 15 18 20 20 18 20 12 11 18 16 13 8 12 16 18 21 30 34 32 30 32 35 31 33 38 40 36 35 35 35 34 34 33 32 32 29 27 24
10 16 8 10 17 11 15 16 12 14 9 6 10 12 19 10 13 8 12 16 16 18 29 29 30 31 32 34 32 37 42 43 37 31 33 34 32 33 33 30 26 23 20 20
Wind_Direction
221 173 213 210 203 220 259 254 269 268 262 205 230 243 252 254 257 251 235 167 158 153 155 127 89 58 32 357 310 304 254 229 216 198 202 209 201 217 225 224 205 202 204 209
216 237 229 212 222 236 256 263 271 273 242 193 255 252 248 236 235 221 217 159 161 148 145 143 108 76 41 20 357 316 264 231 237 235 215 214 207 208 213 213 218 221 226 220
201 241 183 203 236 233 241 234 243 240 289 308 296 285 251 240 200 69 117 153 145 155 156 146 91 45 23 6 344 325 262 249 249 230 219 206 200 196 210 214 211 216 223 227
227 237 264 226 240 220 254 212 235 256 59 252 48 285 255 246 175 128 129 139 148 151 137 112 85 52 26 353 343 338 263 270 221 207 211 198 183 188 206 212 215 217 225 234
218 196 217 232 239 197 232 208 202 207 224 348 197 233 271 93 195 181 185 166 161 152 140 134 107 88 51 347 350 9 280 169 199 199 209 205 193 200 206 209 218 226 223 226
221 227 179 214 244 212 193 109 41 40 72 297 214 174 276 218 200 162 171 181 165 158 149 126 119 98 68 37 8 25 55 114 149 193 204 206 185 182 196 216 220 227 237 252
246 242 252 231 262 111 107 96 325 328 357 229 160 162 249 260 219 181 176 175 173 160 146 139 128 116 101 54 32 27 64 84 121 150 167 179 169 212 250 239 239 234 225 242
220 286 221 221 213 184 184 155 163 215 206 252 314 231 251 270 277 159 161 151 156 156 145 132 131 125 113 95 62 59 95 89 115 135 136 149 157 190 252 241 238 235 227 222
189 246 260 211 198 177 181 188 181 105 352 28 236 286 311 67 83 134 146 155 162 164 151 140 139 130 135 125 104 93 93 104 114 135 146 149 144 120 176 240 230 226 221 208
217 269 247 277 161 180 179 160 98 38 210 237 273 263 245 226 180 162 162 166 164 158 149 148 147 145 148 145 136 138 118 118 119 139 165 158 171 173 152 143 208 209 195 178
311 233 235 160 199 186 147 175 143 145 156 197 272 257 216 200 185 181 179 170 166 165 163 157 151 155 160 159 151 145 137 126 122 138 144 146 151 160 148 106 144 146 164 161
25 301 237 240 229 217 213 199 156 147 218 214 181 269 327 206 192 173 169 172 166 166 163 153 147 148 159 166 160 152 143 132 130 134 136 139 142 145 142 129 134 146 150 149
359 355 326 96 320 249 215 193 204 134 108 195 173 263 2 104 149 169 166 170 169 159 159 154 148 153 162 163 162 155 150 134 131 138 135 130 128 135 134 130 126 139 151 158
87 285 288 273 303 335 259 214 201 197 227 217 227 272 312 151 179 181 176 168 170 165 163 163 158 158 165 163 162 156 152 149 143 135 129 123 125 126 126 120 121 124 129 141
172 240 268 289 302 301 282 272 208 208 218 213 243 236 245 222 198 196 178 166 168 172 175 174 166 164 164 163 159 160 162 163 159 145 136 132 132 131 126 119 117 119 120 125
184 273 269 282 305 313 297 290 230 222 218 232 235 241 263 243 136 159 182 175 180 179 181 178 171 167 167 171 164 161 162 167 161 152 142 140 138 132 123 120 120 118 118 119
165 175 222 265 265 331 279 255 241 220 224 224 225 246 252 238 200 198 189 186 185 182 178 178 176 174 170 173 172 164 162 168 163 158 153 151 146 140 135 130 127 124 123 124
166 181 181 291 345 257 251 282 273 245 242 227 248 252 250 236 232 204 196 185 187 181 177 178 173 175 170 171 173 169 165 163 163 160 160 157 152 144 139 140 135 131 131 131
185 164 251 205 230 264 289 269 269 221 261 233 231 247 248 233 110 235 194 191 187 183 177 177 175 177 167 168 168 165 167 167 163 158 157 158 157 153 151 144 142 140 137 134
167 190 169 271 234 241 182 283 352 306 276 224 203 223 235 154 203 231 182 189 184 175 170 169 171 171 169 168 165 163 168 170 166 163 161 165 163 158 155 152 148 146 144 142
135 187 212 222 246 287 287 222 2 253 247 300 282 263 248 209 225 215 178 182 175 170 168 166 164 168 172 168 166 167 169 176 171 169 173 171 170 166 163 159 156 153 152 149
172 166 200 223 229 240 346 322 184 261 311 351 340 325 339 320 288 208 186 175 164 164 163 165 165 169 170 171 170 169 174 174 177 178 175 174 173 170 167 165 163 162 157 153
227 188 206 196 226 261 296 277 282 297 306 306 312 310 325 318 298 216 186 174 169 163 165 167 166 164 169 175 178 174 175 179 181 178 177 177 175 174 172 171 169 165 163 157
237 224 244 266 250 250 257 275 280 270 282 285 290 292 308 297 285 225 193 172 167 163 164 165 162 165 169 177 181 180 180 183 181 178 179 179 179 177 177 178 176 175 172 167
209 246 240 269 282 281 267 260 271 280 270 270 272 292 303 291 281 217 191 176 169 165 163 165 165 169 170 175 179 178 178 180 175 177 178 180 184 182 181 185 185 186 187 185
234 251 247 255 260 255 278 288 297 290 281 279 273 287 284 274 275 211 192 176 166 163 162 164 166 165 164 170 174 177 181 178 172 170 175 180 181 186 187 187 186 196 196 195
Height
778 792 798 789 790 787 787 791 793 783 769 772 774 769 761 755 756 758 759 761 766 768 767 767 767 766 766 766 766 766 764 765 767 767 768 770 772 775 777 782 780 785 789 793
787 792 778 780 783 788 789 794 792 779 766 770 771 768 757 751 748 745 746 759 763 765 766 766 766 766 766 763 762 762 762 763 764 765 765 767 768 772 775 778 779 783 786 789
785 775 764 775 780 786 786 790 786 780 767 764 765 764 755 742 740 742 742 746 756 759 764 764 762 760 759 760 761 760 759 760 761 762 764 765 767 770 772 776 777 780 784 785
778 763 768 776 778 777 788 772 771 770 777 793 770 794 762 742 744 747 750 753 756 758 759 758 759 760 761 761 759 757 757 758 759 759 763 765 765 765 766 771 775 778 779 781
765 762 767 770 763 766 773 762 764 764 775 782 780 791 758 748 751 752 755 755 755 755 756 757 758 760 760 762 760 759 756 756 757 759 762 764 764 766 769 771 774 778 779 780
755 747 751 756 749 753 754 763 779 784 787 801 779 781 767 754 740 745 752 753 753 755 756 755 758 759 762 763 761 760 757 757 757 760 762 763 765 767 769 771 773 775 777 778
758 753 746 746 755 750 759 776 814 802 815 801 772 783 757 732 730 727 737 748 752 753 754 755 757 760 763 763 762 761 759 759 759 760 762 764 766 767 768 771 772 774 776 777
769 773 746 737 742 753 764 772 805 809 815 801 772 779 743 724 720 721 731 742 750 753 753 754 757 761 763 764 764 762 761 760 760 762 764 765 766 767 768 769 771 773 774 775
764 760 731 726 728 737 760 770 758 782 790 798 776 751 728 730 731 731 737 742 748 751 752 754 757 761 764 765 765 764 762 763 763 763 763 765 767 769 769 769 768 770 771 773
739 751 732 729 729 730 738 747 773 786 792 789 771 761 740 733 738 737 738 742 746 750 751 755 757 761 764 766 766 766 764 765 765 765 766 766 769 770 769 768 768 769 770 773
741 737 734 734 737 741 746 750 752 763 778 783 774 754 721 720 722 729 736 738 743 747 750 753 757 760 764 767 768 768 767 766 767 767 768 768 770 770 770 769 769 769 771 774
757 759 741 731 724 723 718 727 744 768 766 770 770 750 708 711 713 721 730 737 741 745 749 752 756 760 764 767 769 769 769 769 770 770 770 770 771 772 773 772 772 773 774 776
764 762 757 736 736 727 731 729 727 740 751 758 767 747 712 714 719 722 728 734 739 743 749 751 755 759 764 766 769 770 770 771 772 773 773 773 774 775 775 776 775 777 779 781
762 767 767 757 751 760 738 727 723 730 739 738 736 730 713 718 723 724 726 731 737 741 744 749 753 757 763 766 768 770 771 773 773 774 775 775 777 778 779 779 780 781 784 785
757 763 771 769 760 753 746 729 716 723 719 729 715 722 709 712 719 717 721 728 734 740 743 746 749 755 760 765 767 770 772 774 775 776 777 778 780 782 782 783 785 786 787 789
761 759 758 760 749 749 740 727 706 703 707 709 711 715 701 698 710 716 716 721 728 732 738 742 746 751 756 762 765 769 772 774 776 777 779 780 782 785 786 788 790 791 793 795
768 766 763 754 747 757 745 724 707 699 699 699 712 699 696 702 705 706 710 712 717 723 730 735 740 746 752 758 762 767 771 774 777 779 781 782 784 786 789 791 793 796 798 800
770 771 769 776 754 757 714 716 704 700 693 693 695 694 690 689 686 688 694 701 710 717 723 729 735 743 749 755 761 765 770 774 777 780 782 784 787 789 793 795 797 799 802 804
758 768 794 787 750 723 713 705 704 700 689 683 687 685 682 682 686 687 685 691 694 701 712 721 728 738 745 752 758 763 769 773 776 780 783 786 789 792 794 797 800 802 804 808
756 758 771 788 776 736 698 700 701 695 695 676 677 679 679 684 695 682 681 686 696 702 708 717 726 735 742 749 755 761 766 771 775 778 781 785 789 792 796 798 802 805 808 810
768 761 762 757 763 733 700 693 697 707 699 674 673 673 670 676 664 663 669 676 684 693 703 714 722 729 738 746 752 758 764 769 773 777 781 786 790 793 797 801 804 807 810 813
756 772 766 746 743 736 711 699 707 696 682 681 680 675 674 669 665 664 663 667 676 686 700 709 717 725 734 742 748 754 761 767 772 777 782 786 791 795 800 803 807 810 813 816
748 741 748 736 723 710 709 707 705 700 690 682 677 668 670 667 664 662 662 664 671 677 689 701 710 720 730 738 744 749 756 763 770 776 781 787 791 795 800 804 808 812 815 819
729 723 727 722 709 707 704 700 697 692 685 680 676 671 669 666 661 658 659 661 668 676 684 695 706 715 724 733 741 747 753 760 767 774 780 786 790 794 799 803 807 811 815 819
725 720 719 718 707 702 697 692 687 681 677 671 669 667 666 660 655 654 656 658 662 669 680 688 696 707 716 728 737 743 749 756 764 772 778 784 789 793 796 801 804 808 813 815
711 711 718 713 694 693 684 680 679 676 670 660 662 660 660 657 651 650 650 653 658 666 676 685 694 703 713 723 732 739 745 752 760 769 775 781 787 793 797 802 807 812 816 819